Location: Mahannah Oil Field
(37.4664°N, 96.6003°W)
Time: 18:08:26
(UTC+00:00)

Vanguard 2 - Pass Details

Date: 25 June 2021
Orbit: 552 x 2937 km, 32.9° (Epoch: 26 July)

Event Time Altitude Azimuth Distance (km) Brightness Sun altitude
Rises 03:13:00 0° 279° (W) 5,585 12.9 -13.7°
Reaches altitude 10° 03:17:34 10° 272° (W) 4,172 12.0 -14.3°
Maximum altitude 03:26:45 37° 211° (SSW) 1,853 9.3 -15.6°
Enters shadow 03:30:36 21° 158° (SSE) 2,129 9.2 -16.1°
